CALSPHERE 1 1 00900U 64063C 26255.32563985 .00000429 00000+0 42672-3 0 9997 2 00900 90.2175 73.7885 0026957 32.5298 86.0285 13.76701804083413 CALSPHERE 2 1 00902U 64063E 26255.25241272 .00000032 00000+0 35174-4 0 9993 2 00902 90.2289 77.8433 0017885 340.5626 194.1066 13.52906226868038 LCS 1 1 01361U 65034C 26255.31557345 .00000014 00000+0 76740-3 0 9993 2 01361 32.1457 330.1568 0011249 70.9514 289.2201 9.89310660218517 TEMPSAT 1 1 01512U 65065E 26255.34013007 .00000026 00000+0 34305-4 0 9995 2 01512 90.0055 212.6096 0070027 5.5959 147.5915 13.33598263971669 CALSPHERE 4A 1 01520U 65065H 26255.10489352 .00000080 00000+0 13597-3 0 9997 2 01520 89.8909 121.6135 0068379 217.3398 307.4469 13.36290660974311 OPS 5712 (P/L 160) 1 02826U 67053A 26255.27173347 .00004858 00000+0 67157-3 0 9996 2 02826 69.9169 184.6731 0004141 273.1675 86.9000 14.78689347079108 OPS 5712 (P/L 153) 1 02874U 67053H 26255.12824556 -.00000005 00000+0 34363-4 0 9993 2 02874 69.9728 288.9538 0004533 77.2983 282.8630 13.96838863018933 RIGIDSPHERE 2 (LCS 4) 1 05398U 71067E 26255.24858229 .00000408 00000+0 12703-3 0 9993 2 05398 87.6218 314.6468 0057736 305.1606 54.4192 14.37954016886399 COSMOS 2493 (SKRL-756 1) 1 39490U 13078A 26255.26979826 .00002404 00000+0 17869-3 0 9996 2 39490 82.4159 175.9746 0011773 315.6498 44.3783 15.02545759691031 COSMOS 2494 (SKRL-756 2) 1 39491U 13078B 26255.24251005 .00002316 00000+0 15964-3 0 9993 2 39491 82.4156 165.0261 0014461 269.6350 90.3220 15.05314097691908